| time (UTC) | temp F | wind direction | speed MPH | gust MPH | rain 1hr in | rain 24hr in | rain mn in | humidity % | barometer mb |
| 20260506001604 | 51 | 281 | 1.0 | 3.0 | 0.00 | 0.33 | 0.22 | 83 | 1009.5 |
| 20260506000100 | 51 | 281 | 0.0 | 3.0 | 0.00 | 0.33 | 0.22 | 83 | 1009.8 |
| 20260505234618 | 51 | 282 | 1.0 | 3.0 | 0.00 | 0.33 | 0.22 | 82 | 1009.8 |
| 20260505233059 | 51 | 282 | 0.0 | 3.0 | 0.00 | 0.33 | 0.22 | 82 | 1009.7 |
| 20260505231559 | 51 | 282 | 0.0 | 3.0 | 0.00 | 0.33 | 0.22 | 81 | 1009.5 |
| 20260505230058 | 51 | 282 | 2.0 | 5.0 | 0.00 | 0.33 | 0.22 | 81 | 1009.6 |
| 20260505224557 | 51 | 294 | 2.0 | 4.0 | 0.00 | 0.33 | 0.22 | 81 | 1009.4 |
| 20260505223104 | 51 | 294 | 1.0 | 4.0 | 0.00 | 0.33 | 0.22 | 81 | 1009.3 |
| 20260505221608 | 51 | 294 | 0.0 | 4.0 | 0.00 | 0.33 | 0.22 | 81 | 1009.4 |
| 20260505220138 | 51 | 294 | 1.0 | 3.0 | 0.01 | 0.33 | 0.22 | 80 | 1009.4 |
| 20260505214655 | 52 | 292 | 1.0 | 3.0 | 0.01 | 0.33 | 0.22 | 80 | 1009.8 |
| 20260505213054 | 52 | 292 | 1.0 | 4.0 | 0.01 | 0.33 | 0.22 | 80 | 1009.7 |
| 20260505211611 | 52 | 293 | 0.0 | 3.0 | 0.01 | 0.33 | 0.22 | 80 | 1009.3 |
| 20260505210053 | 51 | 306 | 1.0 | 3.0 | 0.00 | 0.32 | 0.21 | 80 | 1009.7 |
| 20260505204552 | 51 | 306 | 3.0 | 5.0 | 0.00 | 0.32 | 0.21 | 79 | 1009.8 |
| 20260505203054 | 51 | 349 | 0.0 | 2.0 | 0.00 | 0.32 | 0.21 | 80 | 1009.6 |
| 20260505201605 | 50 | 349 | 1.0 | 3.0 | 0.00 | 0.32 | 0.21 | 81 | 1009.7 |
| 20260505194601 | 50 | 53 | 0.0 | 3.0 | 0.00 | 0.32 | 0.21 | 80 | 1009.8 |
| 20260505193050 | 50 | 50 | 0.0 | 4.0 | 0.00 | 0.32 | 0.21 | 82 | 1009.8 |
| 20260505191553 | 50 | 44 | 1.0 | 4.0 | 0.00 | 0.32 | 0.21 | 82 | 1010.2 |
| 20260505190051 | 50 | 122 | 2.0 | 5.0 | 0.00 | 0.32 | 0.21 | 83 | 1009.8 |
| 20260505184548 | 49 | 146 | 2.0 | 5.0 | 0.00 | 0.32 | 0.21 | 84 | 1009.8 |
| 20260505183051 | 49 | 94 | 1.0 | 3.0 | 0.01 | 0.32 | 0.21 | 85 | 1010.2 |
| 20260505181548 | 49 | 113 | 1.0 | 4.0 | 0.02 | 0.32 | 0.21 | 85 | 1009.8 |
| 20260505180046 | 48 | 119 | 1.0 | 4.0 | 0.02 | 0.32 | 0.21 | 84 | 1010.2 |
| 20260505174547 | 49 | 128 | 1.0 | 4.0 | 0.03 | 0.32 | 0.21 | 83 | 1010.0 |
| 20260505173048 | 49 | 46 | 0.0 | 4.0 | 0.02 | 0.31 | 0.20 | 83 | 1010.5 |
| 20260505171544 | 49 | 33 | 0.0 | 3.0 | 0.02 | 0.30 | 0.19 | 83 | 1010.9 |
| 20260505170042 | 49 | 35 | 1.0 | 3.0 | 0.02 | 0.30 | 0.19 | 83 | 1011.1 |
| 20260505164540 | 49 | 136 | 1.0 | 2.0 | 0.03 | 0.28 | 0.18 | 83 | 1010.8 |
| 20260505163040 | 49 | 360 | 0.0 | 3.0 | 0.07 | 0.28 | 0.18 | 82 | 1010.8 |
| 20260505161540 | 49 | 360 | 0.0 | 3.0 | 0.07 | 0.28 | 0.17 | 82 | 1010.7 |
| 20260505153040 | 49 | 360 | 0.0 | 4.0 | 0.04 | 0.22 | 0.11 | 80 | 1010.0 |
| 20260505151535 | 49 | 306 | 0.0 | 4.0 | 0.03 | 0.21 | 0.10 | 79 | 1010.3 |
| 20260505124517 | 50 | 69 | 2.0 | 6.0 | 0.00 | 0.16 | 0.05 | 74 | 1007.7 |
| 20260505123014 | 49 | 163 | 3.0 | 8.0 | 0.00 | 0.16 | 0.05 | 75 | 1007.6 |
| 20260505121513 | 49 | 95 | 2.0 | 6.0 | 0.00 | 0.16 | 0.05 | 76 | 1007.7 |
| 20260505120010 | 49 | 67 | 1.0 | 7.0 | 0.00 | 0.16 | 0.05 | 77 | 1008.1 |
| 20260505114508 | 49 | 68 | 1.0 | 6.0 | 0.00 | 0.16 | 0.05 | 78 | 1007.6 |
| 20260505113007 | 49 | 119 | 1.0 | 7.0 | 0.00 | 0.16 | 0.05 | 78 | 1007.5 |
| 20260505111505 | 49 | 103 | 1.0 | 4.0 | 0.00 | 0.16 | 0.05 | 78 | 1007.6 |
| 20260505101559 | 51 | 242 | 1.0 | 8.0 | 0.04 | 0.16 | 0.05 | 73 | 1007.0 |
| 20260505100054 | 52 | 63 | 1.0 | 3.0 | 0.04 | 0.15 | 0.04 | 71 | 1006.1 |
| 20260505094550 | 53 | 5 | 1.0 | 2.0 | 0.04 | 0.15 | 0.04 | 67 | 1007.4 |
| 20260505093047 | 54 | 272 | 1.0 | 3.0 | 0.03 | 0.14 | 0.03 | 65 | 1007.6 |
| 20260505091555 | 55 | 315 | 0.0 | 3.0 | 0.01 | 0.12 | 0.01 | 60 | 1008.1 |
| 20260505090047 | 55 | 149 | 1.0 | 4.0 | 0.00 | 0.11 | 0.00 | 57 | 1007.5 |
| 20260505084546 | 56 | 49 | 2.0 | 8.0 | 0.00 | 0.11 | 0.00 | 57 | 1006.6 |
| 20260505083037 | 56 | 27 | 3.0 | 10.0 | 0.00 | 0.11 | 0.00 | 57 | 1006.1 |
| 20260505081534 | 56 | 109 | 1.0 | 4.0 | 0.00 | 0.11 | 0.00 | 57 | 1005.8 |
| 20260505080033 | 56 | 152 | 1.0 | 4.0 | 0.00 | 0.11 | 0.00 | 59 | 1005.4 |
| 20260505074534 | 56 | 40 | 2.0 | 11.0 | 0.00 | 0.11 | 0.00 | 59 | 1004.6 |
| 20260505073037 | 56 | 11 | 1.0 | 6.0 | 0.00 | 0.11 | 0.00 | 62 | 1004.5 |
| 20260505071525 | 56 | 42 | 3.0 | 9.0 | 0.00 | 0.11 | 0.00 | 62 | 1003.6 |
| 20260505070036 | 55 | 62 | 3.0 | 11.0 | 0.00 | 0.11 | 0.00 | 65 | 1003.8 |
| 20260505064522 | 55 | 138 | 2.0 | 5.0 | 0.00 | 0.11 | 0.00 | 70 | 1003.7 |
| 20260505063021 | 55 | 22 | 1.0 | 6.0 | 0.00 | 0.11 | 0.00 | 73 | 1004.2 |
| 20260505061520 | 57 | 15 | 1.0 | 9.0 | 0.00 | 0.11 | 0.00 | 77 | 1004.1 |
| 20260505060014 | 58 | 303 | 0.0 | 2.0 | 0.00 | 0.11 | 0.00 | 76 | 1004.3 |
| 20260505054508 | 58 | 303 | 0.0 | 0.0 | 0.00 | 0.11 | 0.00 | 76 | 1003.3 |
| 20260505053005 | 59 | 304 | 0.0 | 1.0 | 0.01 | 0.11 | 0.00 | 74 | 1003.5 |
| 20260505051501 | 61 | 46 | 1.0 | 4.0 | 0.11 | 0.11 | 0.00 | 73 | 1002.8 |
| 20260505041559 | 68 | 51 | 3.0 | 13.0 | 0.00 | 0.00 | 0.00 | 53 | 1002.1 |
| 20260505040057 | 69 | 298 | 2.0 | 17.0 | 0.00 | 0.00 | 0.00 | 58 | 1001.2 |
| 20260505034554 | 69 | 248 | 3.0 | 9.0 | 0.00 | 0.00 | 0.00 | 72 | 1000.1 |
| 20260505033054 | 69 | 250 | 3.0 | 5.0 | 0.00 | 0.00 | 0.00 | 71 | 1000.0 |
| 20260505031604 | 70 | 244 | 2.0 | 5.0 | 0.00 | 0.00 | 0.00 | 69 | 999.9 |
| 20260505030053 | 70 | 242 | 1.0 | 4.0 | 0.00 | 0.00 | 0.00 | 68 | 1000.0 |
| 20260505024559 | 71 | 238 | 2.0 | 4.0 | 0.00 | 0.00 | 0.00 | 66 | 1000.0 |
| 20260505023051 | 72 | 234 | 2.0 | 7.0 | 0.00 | 0.00 | 0.00 | 64 | 999.9 |
| 20260505021554 | 73 | 242 | 1.0 | 4.0 | 0.00 | 0.00 | 0.00 | 62 | 999.7 |
| 20260505020051 | 74 | 250 | 1.0 | 5.0 | 0.00 | 0.00 | 0.00 | 61 | 999.4 |
| 20260505014604 | 75 | 273 | 2.0 | 9.0 | 0.00 | 0.00 | 0.00 | 60 | 999.1 |
| 20260505013051 | 76 | 244 | 4.0 | 9.0 | 0.00 | 0.00 | 0.00 | 59 | 998.7 |
| 20260505011556 | 75 | 238 | 5.0 | 10.0 | 0.00 | 0.00 | 0.00 | 58 | 998.7 |
| 20260505010047 | 76 | 256 | 1.0 | 7.0 | 0.00 | 0.00 | 0.00 | 54 | 998.0 |
| 20260505004546 | 77 | 259 | 0.0 | 6.0 | 0.00 | 0.00 | 0.00 | 52 | 998.1 |
| 20260505003045 | 77 | 263 | 2.0 | 6.0 | 0.00 | 0.00 | 0.00 | 50 | 998.5 |